www.pogodaiklimat.ru

Погода и климат >> Архив погоды >> Южная Африка >> Порт-Эдвард


ПОГОДА в Порт-Эдварде

  • Прогноз погоды в Порт-Эдварде
  • Монитор погоды в Порт-Эдварде

АРХИВ ПОГОДЫ в Порт-Эдварде

Время (UTC), дата Ветер
(напр.,м/с)
 
Видим.   Явления Облачность Т
(С)
Тd
(С)
f
(%)
Тe
(С)
Тes
(С)
Комфортность P
(гПа)
Po
(гПа)
Тmin
(С)
Tmax
(С)
R
(мм)
R24
(мм)
S
(см)
00 9.06 С 3 н/о н/о +15.9 +13.4 85 +16 +16 1032.7 1031.0 +15.4 +21.9 12
03 9.06 С 2 н/о н/о +16.0 +13.5 85 +16 +16 1031.3 1029.6 +15.4 +21.9
06 9.06 С 4 н/о н/о +17.7 +13.0 74 +18 +18 1030.0 1028.4 +15.4 12
09 9.06 СВ 6 н/о н/о +21.4 +13.9 62 +24 +24 комфорт 1028.0 1026.4 +15.4 +21.4
12 9.06 СВ 7 н/о н/о +22.3 +15.5 65 +26 +26 жарко 1023.8 1022.2 +15.4 +22.5 0.2
15 9.06 СВ 5 н/о н/о +20.5 +15.1 71 +23 +23 комфорт 1021.6 1020.0 +20.5 +22.5
18 9.06 СВ 4 н/о н/о +18.5 +15.0 80 +19 +19 1021.0 1019.4 +18.5 +22.5 0.2
21 9.06 СВ 3 н/о н/о +17.1 +14.4 84 +17 +17 1019.8 1018.2 +17.1 +22.5
00 10.06 З 1 н/о н/о +13.1 +11.0 87 +13 +13 1018.9 1017.2 +13.1 +22.5 0.2
03 10.06 СЗ 1 н/о н/о +12.2 +9.7 85 +12 +12 1019.4 1017.7 +11.9 +22.5
06 10.06 СВ 2 н/о н/о +20.8 +14.5 67 +24 +24 комфорт 1018.9 1017.3 +11.9 0.2
09 10.06 СВ 1 н/о н/о +24.8 +16.6 60 +28 +28 жарко 1020.4 1018.8 +11.9 +25.3
15 10.06 З 3 н/о н/о +20.8 +15.8 73 +25 +25 комфорт 1021.8 1020.2 +20.8 +26.1
18 10.06 З 3 н/о н/о +19.4 +14.9 75 +21 +21 комфорт 1023.9 1022.3 +19.3 +26.1
21 10.06 З 3 н/о н/о +18.4 +14.1 76 +19 +19 1024.5 1022.9 +18.4 +26.1
00 11.06 СЗ 3 н/о н/о +17.4 +13.5 78 +17 +17 1024.1 1022.5 +17.3 +26.1
03 11.06 СЗ 3 н/о н/о +17.1 +13.0 77 +17 +17 1023.6 1022.0 +16.7 +26.1
06 11.06 СЗ 2 н/о н/о +18.8 +14.5 76 +20 +20 1024.3 1022.7 +16.7
09 11.06 СВ 5 н/о н/о +23.2 +17.5 70 +29 +29 душно 1023.4 1021.8 +16.7 +23.5
12 11.06 СВ 5 н/о н/о +23.3 +17.6 70 +29 +29 душно 1019.7 1018.1 +16.7 +23.6
15 11.06 СВ 5 н/о н/о +21.1 +17.5 80 +25 +25 комфорт 1018.5 1016.9 +21.1 +23.6
18 11.06 С 3 н/о н/о +19.2 +16.6 85 +21 +21 комфорт 1018.2 1016.6 +19.2 +23.6
21 11.06 С 2 н/о н/о +16.4 +13.9 85 +16 +16 1017.1 1015.5 +16.1 +23.6
00 12.06 штиль 0 н/о н/о +13.9 +11.0 83 +14 +14 1016.4 1014.8 +13.9 +23.6
03 12.06 С 1 н/о н/о +14.0 +8.2 68 +14 +14 1016.0 1014.4 +13.1 +23.6
06 12.06 С 1 н/о н/о +17.4 +8.8 57 +18 +18 1017.3 1015.7 +13.1
09 12.06 СВ 2 н/о н/о +24.9 +9.4 37 +26 +26 жарко 1017.1 1015.5 +13.1 +24.9
12 12.06 ЮЗ 6 н/о н/о +23.0 +18.6 76 +29 +29 очень
душно
1017.1 1015.5 +13.1 +26.1
15 12.06 ЮЗ 4 н/о н/о +20.7 +17.1 80 +24 +24 комфорт 1019.2 1017.6 +20.7 +26.1
18 12.06 ЮЗ 3 н/о н/о +19.7 +15.4 76 +22 +22 комфорт 1022.3 1020.7 +19.7 +26.1
21 12.06 ЮЗ 5 н/о н/о +18.7 +13.1 70 +19 +19 1024.5 1022.9 +18.7 +26.1
00 13.06 ЮЗ 6 н/о н/о +17.1 +6.4 49 +16 +16 1026.6 1025.0 +16.7 +26.1
03 13.06 ЮЗ 5 н/о н/о +16.3 +2.4 39 +15 +15 1028.9 1027.3 +16.2 +26.1
06 13.06 ЮЗ 5 н/о н/о +15.5 +2.4 41 +15 +15 1032.1 1030.4 +14.9
09 13.06 ЮЗ 6 н/о н/о +19.0 +5.2 40 +19 +19 1033.1 1031.5 +14.9 +19.0
12 13.06 ЮЗ 7 н/о н/о +18.7 +8.7 52 +19 +19 1032.1 1030.5 +14.9 +19.3
15 13.06 ЮЗ 4 н/о н/о +17.5 +11.1 66 +17 +17 1032.7 1031.1 +16.9 +19.3
18 13.06 СЗ 2 н/о н/о +14.2 +11.9 86 +14 +14 1034.1 1032.4 +14.2 +19.3 7
21 13.06 СВ 1 н/о н/о +14.9 +12.2 84 +15 +15 1034.7 1033.0 +14.0 +19.3
00 14.06 СЗ 2 н/о н/о +13.5 +11.7 89 +13 +13 1033.4 1031.7 +13.5 +19.3 8
03 14.06 СЗ 3 н/о н/о +10.8 +7.5 80 +9 +9 1032.7 1031.0 +10.7 +19.3
06 14.06 СЗ 3 н/о н/о +13.5 +8.1 70 +12 +12 1032.1 1030.4 +10.7 8
09 14.06 СВ 4 н/о н/о +19.1 +8.2 49 +20 +20 1031.1 1029.5 +10.7 +19.1
12 14.06 СВ 4 н/о н/о +20.6 +10.5 52 +22 +22 комфорт 1028.3 1026.7 +10.7 +20.7 0.2
15 14.06 С 3 н/о н/о +18.1 +11.9 67 +18 +18 1028.2 1026.6 +18.1 +20.8
18 14.06 С 3 н/о н/о +16.4 +11.6 73 +16 +16 1028.5 1026.9 +16.3 +20.8 0.2
21 14.06 С 2 н/о н/о +12.2 +9.2 82 +12 +12 1027.9 1026.2 +12.1 +20.8
00 15.06 С 2 н/о н/о +11.6 +8.1 79 +11 +11 1026.0 1024.3 +11.0 +20.8 0.2
03 15.06 СЗ 2 н/о н/о +9.1 +6.2 82 +8 +8 1024.6 1022.9 +9.0 +20.8
06 15.06 СЗ 2 н/о н/о +11.5 +6.8 73 +11 +11 1025.4 1023.7 +8.4 0.2
09 15.06 СВ 3 н/о н/о +20.4 +9.1 48 +22 +22 комфорт 1024.1 1022.5 +8.4 +20.4
12 15.06 СВ 5 н/о н/о +21.5 +12.7 57 +24 +24 комфорт 1020.5 1018.9 +8.4 +21.6
15 15.06 С 3 н/о н/о +19.4 +13.8 70 +21 +21 комфорт 1019.9 1018.3 +19.4 +21.6
18 15.06 З 1 н/о н/о +14.1 +10.9 81 +14 +14 1021.7 1020.1 +13.9 +21.6
21 15.06 СЗ 1 н/о н/о +12.2 +8.1 76 +12 +12 1021.9 1020.2 +12.2 +21.6

 

Местоположение метеостанции Порт-Эдвард (Южная Африка): широта -31.06 долгота 30.23 высота над уровнем моря 12 м.

В архиве по умолчанию представлена погода в Порт-Эдварде за последнюю неделю. Архивные данные за месяц целиком и за предыдущие месяцы, начиная с января 2011 года, Вы можете получить, выбрав интересующий диапазон дат из раскрывающегося списка и нажав кнопку "Ввод!".


*Определитесь, кто Вы:
робот инопланетянин человек

Внимание! Время в таблицах - всемирное. Для получения местного времени необходимо прибавить поправку, которая равна 2 ч.

Смотрите также архив погоды в соседних городах и на ближайших метеорологических станциях:

Погода в Маргите (Южная Африка) (25 км)
Погода в Паддоке (Южная Африка) (35 км)
Погода в Пеннингтоне (Южная Африка) (87 км)
Погода в Порт Сент-Джон (Южная Африка) (91 км)
Погода в Кокстаде (Южная Африка) (101 км)
Погода в Иксопо (Южная Африка) (102 км)
Погода в Дурбане (Южная Африка) (140 км)
Погода в Коффи-Бей (Южная Африка) (144 км)
Погода в Умтате (Южная Африка) (157 км)
Погода в Питермарицбург аэропорту (Южная Африка) (158 км)

Пояснения к столбцам:

Ветер - указаны скорость ветра в м/с - средняя за 10 мин, порывы в срок и между сроками (в фигурных скобках) и направление, откуда дует ветер: С - северный, СВ - северо-восточный, В - восточный, ЮВ - юго-восточный, Ю - южный, ЮЗ - юго-западный, З - западный, СЗ - северо-западный.
Видимость - горизонтальная дальность видимости в метрах или километрах. При видимости от 1 до 10 км при отсутствии осадков обычно наблюдается дымка, при ухудшении видимости до 1 км и менее - туман. В сухую погоду видимость может ухудшаться дымом, пылью или мглою.
Явления - указаны атмосферные явления, наблюдавшиеся в срок или в последний час перед сроком; фигурными скобками обозначены явления, наблюдавшиеся между сроками (за 1-3 часа до срока); квадратными скобками обозначены град или гололедные отложения с указанием их диаметра в мм.
Облачность - указаны через наклонную черту общая и нижняя облачность в баллах и высота нижней границы облаков в метрах; квадратными скобками обозначены формы облаков: Ci - перистые, Cs - перисто-слоистые, Cc - перисто-кучевые, Ac - высококучевые, As - высокослоистые, Sc - слоисто-кучевые, Ns - слоисто-дождевые, Cu - кучевые, Cb - кучево-дождевые. Подробнее классификацию облаков см. в Атласе облаков (PDF).
T - Температура воздуха - температура, измеренная на высоте 2 м над землей.
Td - Температура точки росы - температура, при понижении до которой содержащийся в воздухе водяной пар достигнет насыщения.
f - Относительная влажность воздуха - влажноcть воздуха, измеренная на высоте 2 м над землей.
Te - Эффективная температура - температура, которую ощущает одетый по сезону человек в тени. Характеристика душности погоды. При расчете учитывается влияние влажности воздуха и скорости ветра на теплоощущения человека.
Tes - Эффективная температура на солнце - температура, которую ощущает человек, с поправкой на солнечный нагрев. Характеристика знойности погоды. Зависит от высоты солнца над горизонтом, облачности и скорости ветра. Ночью, в пасмурную погоду, а также при ветре 12 м/с и более поправка равна нулю.
P - Атмосферное давление - приведенное к уровню моря атмосферное давление.
Po - Атмосферное давление - измеренное на уровне метеостанции атмосферное давление.
Tmin - Минимальная температура - минимум температуры воздуха на высоте 2 м над землей.
Tmax - Максимальная температура - максимум температуры воздуха на высоте 2 м над землей.
R - Количество осадков - Количество выпавших осадков за период времени, мм. При наведении курсора мыши на число - период времени, за который выпало указанное количество осадков.
R24 - Количество осадков - Количество выпавших осадков за 24 часа, мм.
S - Снежный покров - Высота снежного покрова, см. При наведении курсора мыши на число - состояние снежного покрова и степень покрытия местности в баллах.